Regional Weather Roundup
Issued by NWS

Home | Current Version | Previous Version | Text Only | Print | Product List | Glossary Off
Versions: 1 2 3 4 5 6 7 8 9 10 11 12 13 14 15 16 17 18 19 20 21 22 23 24 25 26 27 28 29 30 31 32 33 34 35 36 37 38 39 40 41 42 43 44 45 46 47 48 49 50

000
ASUS43 KIND 210909
RWRIN

WEATHER ROUNDUP FOR INDIANA
NATIONAL WEATHER SERVICE INDIANAPOLIS IN
500 AM EDT MON APR 21 2014

NOTE: "FAIR" INDICATES FEW OR NO CLOUDS BELOW 12,000 FEET WITH NO
SIGNIFICANT WEATHER AND/OR OBSTRUCTIONS TO VISIBILITY.

* - STATION DOES NOT REPORT WEATHER SUCH AS PRECIPITATION OR FOG.

+ - STATION NOT QUALITY CONTROLLED BY THE NATIONAL WEATHER SERVICE.
    USE DATA WITH CAUTION...ESPECIALLY DEWPOINT AND RELATIVE
    HUMIDITY OBSERVATIONS.

INZ001>003-010>013-019-020-211000-
NORTHWEST INDIANA

CITY           SKY/WX    TMP DP  RH WIND       PRES   REMARKS
GARY /AIRPORT/ MOCLDY    63  40  42 S5        30.01F
LA PORTE +     PTCLDY    51  32  48 CALM      30.03F
MICHIGAN CITY+ MOCLDY    61  34  36 S6        30.02F
MONTICELLO +   PTCLDY    49  43  79 CALM      30.04S
RENSSELAER +   PTCLDY    52  41  66 CALM      30.03F
VALPARAISO     MOCLDY    55  37  50 S6        30.03F

$$

LMZ046-743>745-211000-
SOUTHERN LAKE MICHIGAN

STATION/POSITION TIME  TEMP WIND        PRES
                       AIR  DIR/SP/G
                 (UTC) (F)  (DEG/KT/KT) (MB)
MICHIGAN CITY    0900   63  170/ 12/ 17   N/A

$$

INZ004-005-014>016-021>024-211000-
NORTH CENTRAL INDIANA

CITY           SKY/WX    TMP DP  RH WIND       PRES   REMARKS
GOSHEN         CLEAR     47  38  71 CALM      30.04S
LOGANSPORT +   PTCLDY    48  36  61 S5        30.06S
PERU/GRISSOM   PTCLDY    49  40  70 S3        30.04F
ROCHESTER +    MOCLDY    46  39  76 CALM      30.05S
SOUTH BEND     PTCLDY    54  32  43 S5        30.04F
WARSAW +       PTCLDY    46  37  71 CALM      30.05S

$$

INZ006>009-017-018-025>027-211000-
NORTHEAST INDIANA

CITY           SKY/WX    TMP DP  RH WIND       PRES   REMARKS
ANGOLA *+      CLEAR     45  43  93 CALM      30.04F
AUBURN +       PTCLDY    45  36  70 CALM      30.05F
FORT WAYNE     MOCLDY    46  37  71 S3        30.06S

$$

INZ028-029-035-036-043>045-051>053-211000-
WEST CENTRAL INDIANA

CITY           SKY/WX    TMP DP  RH WIND       PRES   REMARKS
GREENCASTLE +  MOCLDY    48  41  76 CALM      30.06F
LAFAYETTE      PTCLDY    49  41  74 E3        30.04F
TERRE HAUTE    MOCLDY    51  45  79 SE3       30.05F

$$

INZ030>032-037>040-046>048-054>057-064-065-211000-
CENTRAL INDIANA

CITY           SKY/WX    TMP DP  RH WIND       PRES   REMARKS
CP ATTERBURY + CLEAR     43  41  93 CALM      30.07S
FRANKFORT +    PTCLDY    46  37  71 CALM      30.07
INDIANAPOLIS   PTCLDY    51  40  65 CALM      30.05F
-EAGLE CREEK   PTCLDY    51  43  74 CALM      30.06S
KOKOMO *+      PTCLDY    48  39  71 CALM      30.06S
MARION +       PTCLDY    47  38  71 CALM      30.06S
MT COMFORT *+  CLEAR     46  41  81 SE3       30.07S
SHELBYVILLE    CLEAR     48  41  76 CALM      30.06S
ZIONSVILLE +   PTCLDY    46  40  78 CALM      30.07S

$$

INZ033-034-041-042-049-050-058-059-211000-
EAST CENTRAL INDIANA

CITY           SKY/WX    TMP DP  RH WIND       PRES   REMARKS
MUNCIE         PTCLDY    51  38  60 S3        30.06S

$$

INZ060-061-067>069-081>083-085>088-211000-
SOUTHWEST INDIANA

CITY           SKY/WX    TMP DP  RH WIND       PRES   REMARKS
EVANSVILLE     MOCLDY    55  48  77 CALM      30.07S
HUNTINGBURG *+ MOCLDY    54  43  66 CALM      30.07S
WASHINGTON +   CLOUDY    53  48  82 CALM      30.05S

$$

INZ062-063-066-070>080-084-089>092-211000-
SOUTH CENTRAL AND SOUTHEAST INDIANA

CITY           SKY/WX    TMP DP  RH WIND       PRES   REMARKS
BLOOMINGTON    PTCLDY    48  40  73 CALM      30.06F

$$




USA.gov is the U.S. government's official web portal to all federal, state and local government web resources and services.